Location: Stoke Bliss
(52.2667°N, 2.5167°W)
Time: 14:56:16
(UTC+00:00)

Cosmos 1844 Rocket - Visible Passes

Search period start: 12 June 2021 00:00
Search period end: 22 June 2021 00:00
Orbit: 823 x 845 km, 71.0° (Epoch: 11 June)

Date Brightness Start Highest point End Pass type
(mag) Time Alt. Az. Time Alt. Az. Time Alt. Az.
12 Jun 3.1 21:43:48 10° NNW 21:49:26 59° NE 21:55:01 10° SE visible
12 Jun 3.9 23:28:08 10° NW 23:33:02 30° WSW 23:36:40 16° SSW visible
13 Jun 3.2 21:26:35 10° NNW 21:32:10 55° NE 21:37:44 10° SE visible
13 Jun 3.8 23:10:50 10° NW 23:15:51 33° WSW 23:19:46 15° SSW visible
14 Jun 3.7 22:53:33 10° NW 22:58:40 36° WSW 23:02:55 14° SSW visible
15 Jun 3.6 22:36:15 10° NW 22:41:28 38° WSW 22:46:06 13° S visible
16 Jun 3.6 22:18:59 10° NW 22:24:17 41° WSW 22:29:18 11° S visible
17 Jun 3.5 22:01:42 10° NW 22:07:05 45° WSW 22:12:26 10° S visible
18 Jun 3.4 21:44:26 10° NW 21:49:53 48° WSW 21:55:18 10° S visible
19 Jun 3.3 21:27:11 10° NW 21:32:40 52° WSW 21:38:09 10° S visible
20 Jun 5.2 22:57:30 10° W 22:58:08 10° W 22:58:44 10° W visible
21 Jun 5.1 22:39:18 10° WNW 22:40:59 11° W 22:42:39 10° WSW visible
